This demonstration page uses our WeatherBlox Daily Observations layout. Learn more.

Left ArrowRight Arrow

Hourly Observations for February 28, 2019

Temp ( °F °C ) Dew Point ( °F °C ) Humidity (%) Winds ( mph kmh ) Pressure ( in mb ) Visibility ( mi km ) Precip ( " mm )
12:51 am 00:51 Clear 44 6.7 35 1.7 71 71 E 6 9 30.01 1016 10 16 N/A
1:51 am 01:51 Clear 42 5.6 34 1.1 73 73 N N/A 30.01 1016 10 16 N/A
2:51 am 02:51 Clear 39 3.9 33 0.6 79 79 N N/A 30.01 1016 10 16 N/A
3:51 am 03:51 Clear 40 4.4 33 0.6 77 77 E 3 6 30.01 1016 10 16 N/A
4:51 am 04:51 Clear 38 3.3 32 undefined 79 79 ESE 3 6 30.02 1017 10 16 N/A
5:51 am 05:51 Clear 36 2.2 32 undefined 86 86 N N/A 30.05 1018 10 16 N/A
6:51 am 06:51 Sunny 36 2.2 32 undefined 86 86 N N/A 30.08 1019 10 16 N/A
7:51 am 07:51 Sunny 41 5 33 0.6 73 73 E 5 7 30.07 1018 10 16 N/A
8:51 am 08:51 Sunny 48 8.9 33 0.6 56 56 SE 3 6 30.09 1019 10 16 N/A
9:51 am 09:51 Sunny 55 12.8 33 0.6 44 44 WSW 5 7 30.09 1019 10 16 N/A
10:51 am 10:51 Sunny 59 15 32 undefined 36 36 NW 3 6 30.05 1018 10 16 N/A
11:51 am 11:51 Sunny 64 17.8 31 -0.6 29 29 WSW 7 11 30.04 1017 10 16 N/A
12:51 pm 12:51 Sunny 67 19.4 29 -1.7 24 24 VRB 7 11 29.99 1016 10 16 N/A
1:51 pm 13:51 Sunny 71 21.7 28 -2.2 20 20 W 10 17 29.95 1014 10 16 N/A
2:51 pm 14:51 Sunny 74 23.3 28 -2.2 18 18 WNW 14 22 29.93 1014 10 16 N/A
3:51 pm 15:51 Sunny 74 23.3 28 -2.2 18 18 NW 17 28 29.92 1013 10 16 N/A
4:51 pm 16:51 Sunny 73 22.8 29 -1.7 19 19 NW 15 24 29.92 1013 10 16 N/A
5:51 pm 17:51 Sunny 69 20.6 31 -0.6 24 24 NW 12 19 29.92 1013 10 16 N/A
6:51 pm 18:51 Clear 62 16.7 32 undefined 32 32 NNW 8 13 29.94 1014 10 16 N/A
7:51 pm 19:51 Clear 60 15.6 33 0.6 36 36 N 8 13 29.95 1014 10 16 N/A
8:51 pm 20:51 Clear 57 13.9 34 1.1 42 42 WNW 6 9 29.97 1015 10 16 N/A
9:51 pm 21:51 Clear 54 12.2 36 2.2 51 51 W 8 13 29.98 1015 10 16 N/A
10:51 pm 22:51 Clear 52 11.1 36 2.2 55 55 NW 6 9 29.99 1016 10 16 N/A
11:51 pm 23:51 Clear 51 10.6 37 2.8 59 59 WNW 5 7 29.98 1015 10 16 N/A

Powered by AerisWeather